Location: Heppenheim
(49.6410°N, 8.6370°E)
Time: 10:23:13
(UTC+02:00)

ISS - Visible Passes

Search period start: 11 May 2021 00:00
Search period end: 21 May 2021 00:00
Orbit: 418 x 421 km, 51.6° (Epoch: 11 May)

Date Brightness Start Highest point End Pass type
(mag) Time Alt. Az. Time Alt. Az. Time Alt. Az.
11 May -3.0 02:04:21 50° ENE 02:04:21 50° ENE 02:06:58 10° ENE visible
11 May -3.3 03:37:17 10° WNW 03:40:35 61° N 03:43:56 10° E visible
12 May -1.7 01:18:16 21° ENE 01:18:16 21° ENE 01:19:31 10° ENE visible
12 May -3.2 02:51:11 23° WNW 02:53:05 59° N 02:56:26 10° E visible
12 May -3.8 04:26:38 10° WNW 04:30:02 81° SSW 04:33:25 10° ESE visible
13 May -3.3 02:05:02 51° NW 02:05:36 60° N 02:08:56 10° ENE visible
13 May -3.7 03:39:12 10° WNW 03:42:35 81° NNE 03:45:59 10° ESE visible
14 May -3.2 01:18:38 54° NE 01:18:38 54° NE 01:21:29 10° ENE visible
14 May -3.5 02:51:45 10° WNW 02:55:07 68° N 02:58:30 10° E visible
14 May -3.4 04:28:38 10° WNW 04:31:52 42° SSW 04:35:05 10° SE visible
14 May -3.0 22:50:59 10° SSW 22:54:00 31° SSE 22:55:37 20° E visible
15 May -3.7 00:27:15 10° WSW 00:30:37 78° NNW 00:34:00 10° ENE visible
15 May -3.3 02:04:16 10° WNW 02:07:38 61° N 02:11:00 10° E visible
15 May -3.8 03:41:09 10° WNW 03:44:29 60° SSW 03:47:49 10° SE visible
15 May -2.5 22:04:03 10° SSW 22:06:42 21° SE 22:09:21 10° E visible
15 May -3.9 23:39:48 10° WSW 23:43:10 84° SSE 23:46:34 10° ENE visible
16 May -3.2 01:16:47 10° W 01:20:08 59° N 01:23:29 10° E visible
16 May -3.9 02:53:41 10° WNW 02:57:05 80° SSW 03:00:27 10° ESE visible
16 May -2.4 04:30:57 10° W 04:33:32 20° SW 04:36:06 10° S visible
16 May -3.8 22:52:26 10° WSW 22:55:45 63° SSE 22:59:06 10° ENE visible
17 May -3.3 00:29:17 10° W 00:32:38 60° N 00:35:59 10° ENE visible
17 May -3.8 02:06:14 10° WNW 02:09:38 81° NNE 02:13:01 10° ESE visible
17 May -2.9 03:43:15 10° W 03:46:14 29° SW 03:49:13 10° SSE visible
17 May -3.5 22:05:09 10° SW 22:08:22 45° SSE 22:11:37 10° ENE visible
17 May -3.4 23:41:47 10° W 23:45:08 66° N 23:48:31 10° ENE visible
18 May -3.5 01:18:47 10° WNW 01:22:09 68° N 01:22:56 47° ENE visible
18 May -1.2 02:55:41 10° WNW 02:55:49 11° W 02:55:49 11° W visible
18 May -3.6 22:54:17 10° WSW 22:57:39 78° NNW 23:01:03 10° ENE visible
19 May -3.3 00:31:18 10° WNW 00:34:40 61° N 00:36:31 24° E visible
19 May -1.9 02:08:11 10° WNW 02:09:26 21° W 02:09:26 21° W visible
19 May -3.8 22:06:49 10° WSW 22:10:12 84° SSE 22:13:36 10° ENE visible
19 May -3.2 23:43:49 10° W 23:47:09 59° N 23:50:21 11° E visible
20 May -3.2 01:20:43 10° WNW 01:23:17 48° W 01:23:17 48° W visible
20 May -3.2 22:56:18 10° W 22:59:39 60° N 23:03:00 10° ENE visible
